Starlink 31860

operational
NORAD ID: 59670 Int'l Des: 2024-084 Owner: SPXS Country: US Constellation: starlink
LEOCIRCULAR

Über Starlink 31860

Beschreibung wird geladen...

Live-Position

3D-Globus wird geladen...

Nächste Überflüge

Höhenverlauf

Altitude vs Time

uPlot chart will show altitude changes over time

Zweizeiliger Elementsatz

1 59670U 24084S 25260.15647959 -.00000366 00000-0 -37759-5 0 9999
2 59670 43.0041 298.3444 0001814 273.9040 86.1604 15.27578567 77859
Epoch: 17. Sept. 2025 • Age: 7 hours

Aktueller Status

Höhe 489.7 km
Geschwindigkeit 7.62 km/s
Subsatellitenpunkt -28.55°S, 9.68°W
Startdatum 6. Mai 2024
Alter 1.3 years
Typ internet

Technische Details

Klassifizierung Payload
Masse 730.00 kg
Trockenmasse 700.00 kg
Gesamtmasse 730.00 kg
Länge 0.30 m
Durchmesser 4.10 m
Spannweite 29.00 m
Form Box + pan
Hersteller SPXS
Bus-Typ Starlink V2M
Phasenstatus In Orbit
Besitzer/Staat SPXS/US

Große Konstellationen

Loading constellations...